Flag for Germany Weather past 2 weeks in Zwickau, Saxony, Germany

Now
77 °F

Passing clouds.


Feels Like: 79 °F
Forecast: 64 / 77 °F
Wind: 7 mph from Northeast

Location: Altenburg Nobitz

Current Time: Jul 28, 2014 at 4:37:03 PM

Latest Report: Jul 28, 2014 at 3:50 PM


Visibility: N/A

Pressure: 29.86 "Hg

Humidity: 65%

Dew point: 64 °F

Location of ZwickauLocation

Historic Weather in Zwickau — Graph

°F

Zwickau temperature yesterday

Maximum temperature yesterday: 84 °F (at 2:20 PM)
Minimum temperature yesterday: 64 °F (at 8:50 AM)
Average temperature yesterday: 74 °F

Past Weeks' High & Low Weather Summary

 TemperatureHumidityPressure
High91 °F (Jul 20, 1:50 PM)100% (Jul 25, 8:20 AM)30.21 "Hg (Jul 25, 8:20 AM)
Low61 °F (Jul 25, 8:20 AM)26% (Jul 20, 1:50 PM)29.77 "Hg (Jul 13, 3:20 PM)
Average76 °F59%29.99 "Hg
* Reported Jul 13 3:20 PM — Jul 28 3:20 PM, Zwickau, Weather by CustomWeather, © 2014

Note: Actual official high and low records may vary slightly from our data, if they occured in-between our weather recording intervals... More about our weather records

Advertising

Zwickau weather history for previous 24 hours

 ConditionsComfort  
Time TempWeatherWind HumidityBarometerVisibility
3:20 PM
Jul 28
77 °FScattered clouds.7 mph65%29.86 "HgN/A
2:50 PM79 °FScattered clouds.5 mph61%29.89 "HgN/A
2:20 PM79 °FScattered clouds.7 mph61%29.89 "HgN/A
1:50 PM79 °FScattered clouds.5 mph61%29.89 "HgN/A
1:20 PM79 °FScattered clouds.6 mph61%29.89 "HgN/A
12:50 PM77 °FPassing clouds.6 mph65%29.92 "HgN/A
12:20 PM75 °FPassing clouds.7 mph74%29.92 "HgN/A
11:50 AM75 °FPassing clouds.5 mph69%29.92 "HgN/A
11:20 AM73 °FPassing clouds.3 mph74%29.92 "HgN/A
10:50 AM73 °FPassing clouds.3 mph74%29.92 "HgN/A
10:20 AM72 °FPassing clouds.3 mph73%29.95 "HgN/A
9:50 AM72 °FSunny.1 mph73%29.95 "Hg10 mi
9:20 AM70 °FSunny.2 mph78%29.95 "Hg10 mi
8:50 AM70 °FClear.2 mph83%29.95 "Hg6 mi
8:20 AM66 °FClear.2 mph94%29.95 "Hg5 mi
6:50 PM
Jul 27
68 °FLight rain. Partly sunny.6 mph83%29.98 "HgN/A
6:20 PM70 °FLight rain. Partly sunny.8 mph83%29.95 "HgN/A
5:50 PM70 °FPartly sunny.5 mph83%29.92 "HgN/A
5:20 PM73 °FThundershowers. Partly sunny.3 mph69%29.92 "HgN/A
4:20 PM79 °FScattered clouds.6 mph58%29.92 "HgN/A
Weather by CustomWeather, © 2014

See weather overviewHow to use our weather pages